Hourly Data Report for September 05, 2017

All times are specified in Local Standard Time (LST). Add 1 hour to adjust for Daylight Saving Time where and when it is observed.

POINT LEPREAU CS
NEW BRUNSWICK

45°04'23.040" N
66°26'57.090" W
6.00 m
8104201
71699
WPE

Download Data

Hourly Data (September 2017)
Hourly Data Report for September 5, 2017
Temp Definition
°C
Dew Point Temp Definition
°C
Rel Hum Definition
%
Wind Dir Definition
10's deg

Wind Spd Definition
km/h
Visibility Definition
km
Stn Press Definition
kPa
Hmdx Definition


Wind Chill Definition


Weather Definition


TIME
00:00 13.7 13.2 97 19 12   100.83     LegendNANA
01:00 14.1 13.6 97 20 11   100.84     LegendNANA
02:00 13.8 13.5 98 20 8   100.81     LegendNANA
03:00 14.2 13.7 97 19 15   100.80     LegendNANA
04:00 13.9 13.5 98 19 21   100.76     LegendNANA
05:00 13.8 13.4 97 18 25   100.71     LegendNANA
06:00 13.9 13.4 97 18 22   100.79     LegendNANA
07:00 14.4 14.1 98 18 20   100.79     LegendNANA
08:00 15.4 14.8 96 18 17   100.80     LegendNANA
09:00 16.4 15.2 93 19 18   100.84     LegendNANA
10:00 16.2 15.2 94 19 23   100.86     LegendNANA
11:00 15.5 14.7 95 21 15   100.92     LegendNANA
12:00 14.8 14.5 98 18 20   100.89     LegendNANA
13:00 14.9 14.8 100 19 21   100.88     LegendNANA
14:00 15.0 14.9 99 18 23   100.87     LegendNANA
15:00 14.9 14.9 100 18 21   100.91     LegendNANA
16:00 15.3 15.2 100 18 14   100.91     LegendNANA
17:00 15.1 15.1 100 18 14   100.93     LegendNANA
18:00 14.9 14.8 100 18 12   100.95     LegendNANA
19:00 15.2 LegendMM 100 19 19   100.99     LegendNANA
20:00 14.6 LegendMM 100 18 13   101.06     LegendNANA
21:00 14.5 14.5 100 18 17   101.10     LegendNANA
22:00 14.4 14.3 100 18 10   101.12     LegendNANA
23:00 14.9 14.8 99 21 6   101.13     LegendNANA

Notes on Data Quality.

Legend

  • E = Estimated
  • M = Missing
  • NA = Not Available
  • ‡ = Partner data that is not subject to review by the National Climate Archives
Date modified: